Starlink 35516

operational
NORAD ID: 65918 Int'l Des: 2025-225 Owner: SPXS Country: US Constellation: starlink
NOTLE

Über Starlink 35516

Beschreibung wird geladen...

Live-Position

3D-Globus wird geladen...

Nächste Überflüge

Höhenverlauf

Altitude vs Time

uPlot chart will show altitude changes over time

Zweizeiliger Elementsatz

1 65918U 25225J 25340.96769082 -.00005783 00000-0 -18320-3 0 9998
2 65918 53.1613 236.2404 0001619 96.4571 263.6614 15.30209625 10215
Epoch: 6. Dez. 2025 • Age: 19 hours

Aktueller Status

Höhe 479.4 km
Geschwindigkeit 7.63 km/s
Subsatellitenpunkt 46.71°N, 66.75°W
Startdatum 8. Okt. 2025
Alter 0.1 years
Typ internet

Technische Details

Klassifizierung Payload
Masse 575.00 kg
Trockenmasse 530.00 kg
Gesamtmasse 575.00 kg
Länge 0.30 m
Durchmesser 4.10 m
Spannweite 29.00 m
Form Box + pan
Hersteller SPXS
Bus-Typ Starlink V2MO
Phasenstatus In Orbit
Besitzer/Staat SPXS/US

Große Konstellationen

Loading constellations...